Meteo pe oră la Bolshie Golubochki

Astăzi, 10 Mai, Luni

Timp Temperatura Precipitaţii Vânt Presiune Umiditate
00:00 +2°C° 0 mm 3 m/s 753 mmHg 82%
01:00 +2°C° 0 mm 3 m/s 753 mmHg 82%
02:00 +2°C° 0 mm 3 m/s 754 mmHg 83%
03:00 +2°C° 0 mm 3 m/s 754 mmHg 81%
04:00 +2°C° 0 mm 3 m/s 754 mmHg 80%
05:00 +2°C° 0 mm 3 m/s 755 mmHg 79%
06:00 +4°C° 0 mm 3 m/s 755 mmHg 73%
07:00 +6°C° 0 mm 4 m/s 755 mmHg 66%
08:00 +8°C° 0 mm 5 m/s 756 mmHg 60%
09:00 +9°C° 0 mm 5 m/s 756 mmHg 55%
10:00 +10°C° 0 mm 6 m/s 755 mmHg 50%
11:00 +11°C° 0 mm 6 m/s 755 mmHg 46%
12:00 +11°C° 0 mm 7 m/s 755 mmHg 45%
13:00 +12°C° 0 mm 7 m/s 755 mmHg 44%
14:00 +12°C° 0 mm 7 m/s 755 mmHg 44%
15:00 +12°C° 0 mm 7 m/s 755 mmHg 48%
16:00 +11°C° 0 mm 6 m/s 755 mmHg 53%
17:00 +11°C° 0 mm 6 m/s 755 mmHg 57%
18:00 +9°C° 0 mm 5 m/s 755 mmHg 62%
19:00 +8°C° 0 mm 5 m/s 755 mmHg 66%
20:00 +6°C° 0 mm 4 m/s 755 mmHg 71%
21:00 +6°C° 0 mm 5 m/s 755 mmHg 70%
22:00 +6°C° 0 mm 5 m/s 755 mmHg 70%
23:00 +6°C° 0 mm 5 m/s 755 mmHg 69%

Mâine, 11 Mai, Marţi

Timp Temperatura Precipitaţii Vânt Presiune Umiditate
00:00 +6°C° 0 mm 5 m/s 755 mmHg 71%
01:00 +6°C° 0 mm 5 m/s 754 mmHg 73%
02:00 +6°C° 0 mm 5 m/s 754 mmHg 75%
03:00 +6°C° 0 mm 5 m/s 754 mmHg 77%
04:00 +6°C° 0 mm 5 m/s 754 mmHg 79%
05:00 +6°C° 0 mm 5 m/s 754 mmHg 81%
06:00 +8°C° 0 mm 6 m/s 754 mmHg 79%
07:00 +9°C° 0 mm 6 m/s 754 mmHg 77%
08:00 +11°C° 0 mm 7 m/s 754 mmHg 75%
09:00 +14°C° 0 mm 7 m/s 753 mmHg 73%
10:00 +15°C° 0 mm 8 m/s 753 mmHg 71%
11:00 +17°C° 0 mm 8 m/s 753 mmHg 68%
12:00 +18°C° 0.1 mm 8 m/s 753 mmHg 68%
13:00 +18°C° 0.1 mm 8 m/s 753 mmHg 68%
14:00 +20°C° 0.1 mm 7 m/s 753 mmHg 68%
15:00 +17°C° 0.6 mm 6 m/s 753 mmHg 76%
16:00 +15°C° 0.6 mm 5 m/s 753 mmHg 83%
17:00 +13°C° 0.6 mm 4 m/s 754 mmHg 90%
18:00 +12°C° 0.1 mm 4 m/s 754 mmHg 91%
19:00 +11°C° 0.1 mm 3 m/s 754 mmHg 93%
20:00 +10°C° 0.1 mm 3 m/s 755 mmHg 94%
21:00 +9°C° 0 mm 3 m/s 755 mmHg 93%
22:00 +8°C° 0 mm 3 m/s 755 mmHg 92%
23:00 +7°C° 0 mm 3 m/s 756 mmHg 91%

Poimâine, 12 Mai, Miercuri

Timp Temperatura Precipitaţii Vânt Presiune Umiditate
00:00 +7°C° 0 mm 2 m/s 756 mmHg 92%
01:00 +6°C° 0 mm 2 m/s 756 mmHg 92%
02:00 +6°C° 0 mm 2 m/s 756 mmHg 93%
03:00 +6°C° 0 mm 2 m/s 756 mmHg 92%
04:00 +7°C° 0 mm 2 m/s 755 mmHg 91%
05:00 +7°C° 0 mm 2 m/s 755 mmHg 90%
06:00 +8°C° 0 mm 3 m/s 755 mmHg 87%
07:00 +9°C° 0 mm 3 m/s 755 mmHg 83%
08:00 +11°C° 0 mm 4 m/s 754 mmHg 80%
09:00 +10°C° 0.2 mm 3 m/s 754 mmHg 83%
10:00 +10°C° 0.2 mm 3 m/s 753 mmHg 85%
11:00 +9°C° 0.2 mm 3 m/s 752 mmHg 88%
12:00 +9°C° 1.7 mm 2 m/s 752 mmHg 91%
13:00 +8°C° 1.7 mm 2 m/s 751 mmHg 93%
14:00 +8°C° 1.7 mm 2 m/s 751 mmHg 95%
15:00 +8°C° 0.2 mm 2 m/s 750 mmHg 94%
16:00 +8°C° 0.2 mm 2 m/s 750 mmHg 92%
17:00 +8°C° 0.2 mm 3 m/s 750 mmHg 91%
18:00 +7°C° 0 mm 3 m/s 750 mmHg 92%
19:00 +7°C° 0 mm 3 m/s 750 mmHg 93%
20:00 +5°C° 0 mm 3 m/s 750 mmHg 94%
21:00 +6°C° 0 mm 4 m/s 750 mmHg 94%
22:00 +6°C° 0 mm 5 m/s 750 mmHg 94%
23:00 +6°C° 0 mm 5 m/s 750 mmHg 94%

13 Mai, Joi

Timp Temperatura Precipitaţii Vânt Presiune Umiditate
00:00 +7°C° 1.2 mm 5 m/s 750 mmHg 94%
01:00 +7°C° 1.2 mm 5 m/s 750 mmHg 95%
02:00 +8°C° 1.2 mm 5 m/s 749 mmHg 96%
03:00 +8°C° 0.4 mm 5 m/s 749 mmHg 96%
04:00 +8°C° 0.4 mm 5 m/s 749 mmHg 96%
05:00 +8°C° 0.4 mm 5 m/s 749 mmHg 96%
06:00 +10°C° 0.1 mm 5 m/s 749 mmHg 91%
07:00 +12°C° 0.1 mm 5 m/s 749 mmHg 86%
08:00 +13°C° 0.1 mm 5 m/s 749 mmHg 82%
09:00 +14°C° 0.1 mm 5 m/s 749 mmHg 77%
10:00 +15°C° 0.1 mm 5 m/s 749 mmHg 72%
11:00 +16°C° 0.1 mm 5 m/s 749 mmHg 67%
12:00 +17°C° 0 mm 5 m/s 749 mmHg 63%
13:00 +19°C° 0 mm 4 m/s 749 mmHg 60%
14:00 +19°C° 0 mm 4 m/s 749 mmHg 56%
15:00 +19°C° 0 mm 4 m/s 749 mmHg 60%
16:00 +19°C° 0 mm 3 m/s 749 mmHg 65%
17:00 +19°C° 0 mm 3 m/s 749 mmHg 69%
18:00 +17°C° 0 mm 3 m/s 749 mmHg 75%
19:00 +14°C° 0 mm 3 m/s 749 mmHg 82%
20:00 +13°C° 0 mm 3 m/s 749 mmHg 88%
21:00 +12°C° 0 mm 3 m/s 749 mmHg 89%
22:00 +13°C° 0 mm 2 m/s 749 mmHg 89%
23:00 +13°C° 0 mm 2 m/s 749 mmHg 89%

14 Mai, Vineri

Timp Temperatura Precipitaţii Vânt Presiune Umiditate
00:00 +12°C° 0 mm 3 m/s 749 mmHg 89%
01:00 +12°C° 0 mm 3 m/s 749 mmHg 89%
02:00 +12°C° 0 mm 3 m/s 749 mmHg 89%
03:00 +12°C° 0 mm 4 m/s 749 mmHg 89%
04:00 +12°C° 0 mm 4 m/s 748 mmHg 89%
05:00 +13°C° 0 mm 4 m/s 748 mmHg 89%
06:00 +15°C° 0 mm 5 m/s 748 mmHg 86%
07:00 +16°C° 0 mm 5 m/s 748 mmHg 82%
08:00 +19°C° 0 mm 6 m/s 747 mmHg 79%
09:00 +20°C° 0 mm 6 m/s 747 mmHg 76%
10:00 +21°C° 0 mm 7 m/s 747 mmHg 72%
11:00 +23°C° 0 mm 7 m/s 747 mmHg 69%
12:00 +23°C° 0.1 mm 7 m/s 747 mmHg 70%
13:00 +23°C° 0.1 mm 7 m/s 746 mmHg 71%
14:00 +24°C° 0.1 mm 8 m/s 746 mmHg 73%
15:00 +23°C° 0.5 mm 7 m/s 746 mmHg 74%
16:00 +23°C° 0.5 mm 6 m/s 746 mmHg 76%
17:00 +22°C° 0.5 mm 6 m/s 745 mmHg 77%
18:00 +21°C° 1.5 mm 5 m/s 745 mmHg 82%
19:00 +20°C° 1.5 mm 4 m/s 745 mmHg 86%
20:00 +18°C° 1.5 mm 4 m/s 745 mmHg 90%
21:00 +18°C° 0.6 mm 3 m/s 745 mmHg 91%
22:00 +17°C° 0.6 mm 2 m/s 745 mmHg 92%
23:00 +17°C° 0.6 mm 2 m/s 745 mmHg 93%

15 Mai, Sâmbătă

Timp Temperatura Precipitaţii Vânt Presiune Umiditate
00:00 +16°C° 1.5 mm 2 m/s 745 mmHg 94%
01:00 +16°C° 1.5 mm 3 m/s 745 mmHg 96%
02:00 +15°C° 1.5 mm 4 m/s 745 mmHg 97%
03:00 +16°C° 1.1 mm 3 m/s 745 mmHg 96%
04:00 +16°C° 1.1 mm 2 m/s 745 mmHg 95%
05:00 +16°C° 1.1 mm 1 m/s 745 mmHg 94%
06:00 +17°C° 0 mm 2 m/s 745 mmHg 89%
07:00 +18°C° 0 mm 3 m/s 745 mmHg 84%
08:00 +20°C° 0 mm 3 m/s 745 mmHg 79%
09:00 +20°C° 0.8 mm 4 m/s 745 mmHg 79%
10:00 +20°C° 0.8 mm 4 m/s 746 mmHg 79%
11:00 +21°C° 0.8 mm 4 m/s 746 mmHg 78%
12:00 +21°C° 1.2 mm 3 m/s 745 mmHg 78%
13:00 +20°C° 1.2 mm 2 m/s 745 mmHg 79%
14:00 +21°C° 1.2 mm 1 m/s 745 mmHg 79%
15:00 +21°C° 1.1 mm 1 m/s 745 mmHg 81%
16:00 +20°C° 1.1 mm 1 m/s 744 mmHg 83%
17:00 +18°C° 1.1 mm 2 m/s 744 mmHg 85%
18:00 +17°C° 0.1 mm 2 m/s 744 mmHg 87%
19:00 +16°C° 0.1 mm 2 m/s 744 mmHg 88%
20:00 +15°C° 0.1 mm 2 m/s 744 mmHg 89%
21:00 +15°C° 0 mm 2 m/s 744 mmHg 89%
22:00 +14°C° 0 mm 1 m/s 744 mmHg 89%
23:00 +14°C° 0 mm 1 m/s 744 mmHg 89%
Arată mai mult

Formular de consimțământ

Meteoprog și furnizorii noștri de servicii pot stoca și accesa date personale, precum cookies, identificatori de dispozitiv sau alte tehnologii similare pe dispozitivul dumneavoastră și procesa astfel de date pentru a personaliza conținutul și reclamele, dar și pentru a oferi caracteristici de social media și pentru a analiza traficul.

  • Stocarea și/sau accesarea informațiilor pe dispozitivul dumneavoastră

    Cookies, identificatori de dispozitiv sau alte informații pot fi stocate sau accesate pe dispozitiv în scopurile indicate mai sus.

  • Reclame și conținut personalizat, evaluarea reclamelor și a conținutului, informații despre audiențe și dezvoltarea produselor

    Reclamele și conținutul pot fi personalizate pe baza unui profil. Pot fi adăugate date suplimentare pentru a personaliza mai bine reclamele și conținutul. Performanța reclamelor și conținutului poate fi măsurată. Pot fi obținute informații despre utilizatorii care au văzut reclamele și conținutul. Aceste date pot fi utilizate pentru a dezvolta sau îmbunătăți experiența utilizatorilor, sistemele și software-ul.

Dând clic pe ‘Sunt de acord’, permiteți utilizarea cookie-urilor menționate, a identificatorilor de dispozitiv, balizelor web sau altor tehnologii similare. Setările pot fi modificate din browser-ul dispozitivului dumneavoastră.

În anumite scopuri, interesele legitime pot prima asupra consimțământului. Puteți citi mai multe informații în acest sens în Politica privind Confidențialitatea Datelor și Cookie.